Regional Weather Roundup
Issued by NWS New Orleans/Baton Rouge, LA

Home | Current Version | Previous Version | Graphics & Text | Print | Product List | Glossary On
Versions: 1 2 3 4 5 6 7 8 9 10 11 12 13 14 15 16 17 18 19 20 21 22 23 24 25 26 27 28 29 30 31 32 33 34 35 36 37 38 39 40 41 42 43 44 45 46 47 48 49 50
122
ASUS44 KLIX 211201
RWRLIX
NEW ORLEANS REGIONAL WEATHER ROUNDUP
NATIONAL WEATHER SERVICE NEW ORLEANS LA
700 AM CDT SUN SEP 21 2014

NOTE: "FAIR" INDICATES FEW OR NO CLOUDS BELOW 12,000 FEET WITH NO
      SIGNIFICANT WEATHER AND/OR OBSTRUCTIONS TO VISIBILITY.
      SKY/WX - SKY CONDITION AND SIGNIFICANT WEATHER.
      TMP - AIR TEMPERATURE.     DP    - DEWPOINT TEMPERATURE.
      RH  - RELATIVE HUMIDITY.   PRES  - PRESSURE.
      HI  - HEAT INDEX.          WCI   - WIND CHILL INDEX.

*  THESE STATIONS ARE NOT NWS OR FAA STATIONS AND ARE NOT UNDER
   NWS QUALITY CONTROL.

LAZ038-040-048-061>063-065>067-069-211300-
SOUTHEAST LOUISIANA

CITY           SKY/WX    TMP DP  RH WIND       PRES   REMARKS
N.O. AUDUBON     N/A     73  70  92 MISG        N/A
6HR MIN TEMP:  72; 6HR MAX TEMP:  79;

N.O. INTL ARPT PTCLDY    76  69  79 NE7       30.00R
6HR MIN TEMP:  74; 6HR MAX TEMP:  78;

N.O. LAKEFRONT CLEAR     76  69  79 NE14      30.01R
6HR MIN TEMP:  76; 6HR MAX TEMP:  80;

N.O. DOWNTOWN*   N/A     75  64  69 NE3       30.01R
6HR MIN TEMP:  75; 6HR MAX TEMP:  79;

SLIDELL        CLEAR     66  63  90 CALM      30.01R
6HR MIN TEMP:  66; 6HR MAX TEMP:  70;

BATON ROUGE    CLEAR     69  67  93 NE5       30.02S
6HR MIN TEMP:  69; 6HR MAX TEMP:  72;

BOOTHVILLE     CLEAR     79  74  84 NE6       29.98S
6HR MIN TEMP:  79; 6HR MAX TEMP:  81;

BELLE CHASSE   CLEAR     71  67  87 CALM      30.00R
6HR MIN TEMP:  70; 6HR MAX TEMP:  75;

BOGALUSA*        N/A     65  62  89 CALM      30.04S FOG
6HR MIN TEMP:  64; 6HR MAX TEMP:  70;

GALLIANO*      NOT AVBL
NEW ROADS*     FOG       68  68  98 CALM      30.02S VSB<1/4
6HR MIN TEMP:  67; 6HR MAX TEMP:  71;

GONZALES*        N/A     69  69 100 CALM      30.01R
6HR MIN TEMP:  69; 6HR MAX TEMP:  72;

HAMMOND*       NOT AVBL
HOUMA*         CLEAR     72  66  83 N5        29.99S
PORT FOURCHON* SUNNY     79  73  83 NE8       30.01R

$$

MSZ070-080>082-211300-
SOUTHERN MISSISSIPPI

CITY           SKY/WX    TMP DP  RH WIND       PRES   REMARKS
MCCOMB         CLEAR     66  64  93 CALM      30.04R
6HR MIN TEMP:  65; 6HR MAX TEMP:  72;

GULFPORT       CLEAR     69  65  86 N5        30.01R
6HR MIN TEMP:  68; 6HR MAX TEMP:  72;

BILOXI         CLEAR     69  66  90 NE7       30.01R
6HR MIN TEMP:  69; 6HR MAX TEMP:  73;

PASCAGOULA     CLEAR     66  65  96 N5        30.01R
6HR MIN TEMP:  66; 6HR MAX TEMP:  70;

STENNIS ARPT*  CLEAR     68  63  83 VRB5      30.01

$$

COASTAL OBSERVATIONS
LAKE AND NEARSHORE STATIONS

STATION/POSITION TIME  TEMP    WIND        PRES    WAVE
                       AIR SEA DIR/SP/G            HT/PER
                 (UTC) (F)     (DEG/KT/KT) (MB)    (FT/S)
PASCAGOULA       1100   73      50/ 10/ 14 1015.1
WAVELAND YACHT   1100   72      30/  9/ 12 1015.4
GRAND ISLE       1100   79 82   50/  7/ 12 1015.5
SOUTHWEST PASS   1100   81 89   60/ 11/ 14 1014.9
NEW CANAL        1100   78 80   50/ 11/ 12 1016.1
SHELL BEACH      1100   78 78   50/ 12/ 14 1015.3

OFFSHORE STATIONS

STATION/POSITION TIME  TEMP    WIND        PRES    WAVE
                       AIR SEA DIR/SP/G            HT/PER
                 (UTC) (F)     (DEG/KT/KT) (MB)    (FT/S)
64 S DAUPHIN ISL 1051   82 84   70/ 14/ 16 1015.3    3/ 6

$$




USA.gov is the U.S. government's official web portal to all federal, state and local government web resources and services.